Résultats de la compétition "Chpt Lorraine LD. Reg 6" du 21-06-2009 organisée par le club 8809
     
  Télécharger le fichier CSV.  
     
     

 Circuit "B"

Licence Nom Prénom Temps CN
précédent
Score sur
la course
Différence
13040VILLARChristophe1:10:4565245823-701
14451RIBAUDOJasmin1:15:0159525492-460
2796LEGALLAISJ-Luc1:15:0254045490+86
10428PHILIPPEEudes1:15:3744725448+976
6599VERDENALBenoit1:17:2656915320-371
11513HAURYGilles1:17:2752055319+114
2372DIETSCHBernard1:19:2752935185-108
16234DOLCIMathias1:19:5849665152+186
9365BARLETGaelle1:20:1354725136-336
11430BERNAUERChristophe1:22:2851894995-194
21475RAIMBAULTYves1:23:17N/A4946N/A
12773OBSTETARPerrine1:24:2258984883-1015
10719MAHLERGeorges1:25:0649884841-147
10722MAHLERFelix1:26:0050364790-246
14238PARISMarie1:27:1649624721-241
15845BACKSCHEIDERAdrien1:27:5037224690+968
2379BILQUEZEric1:28:3345044652+148
1396BOUSSERPhilippe1:31:1254494517-932
1085METOISJ-Michel1:32:4642394441+202
16029TEMPORELLISophie1:35:2744714316-155
10882SCHOULLEROlivier1:36:5248654253-612
20048HANAUERJean Marie1:36:5838994248+349
14077ALLEPaul1:37:5438824208+326
16545BARBELINFrancis1:38:1339994194+195
3413HUROTMichel1:40:2843684100-268
18284ROESLELaurent1:41:2540444062+18
17326FIORUCCIBruno1:41:5030634045+982
7301DUPOIRIEUXCloe1:43:0551503996-1154
12766LOGERobert1:43:3746873976-711
3407FLAMBEAUBruno1:46:1144293880-549
5639HUEBERDiane1:50:1745233735-788
5906D'HARREVILLEAurelie2:00:0245303432-1098
10144GRANDEMANGEPhilippe2:08:36N/A3203N/A
13636KORCHAKTom2:19:3218542952+1098
346LAHAUSSEOlivierN/A39890-3989
10906COLINFranckN/A58880-5888
1897FRICKBernardN/A36960-3696

  Indice de confiance du circuit (moyenne des différences entre CN et score sur la course des 3 à 10 premiers) : 154




 Circuit "A"

Licence Nom Prénom Temps CN
précédent
Score sur
la course
Différence
1763PAGEPhilippe1:18:1375436193-1350
3304MOUGEOTPierre1:20:2863346019-315
1518MULLERMarc1:23:3566625795-867
15299MELINARDLionel1:24:3347935729+936
4677PINEAULaurent1:25:5657735637-136
1911MEYERKirian1:32:5562695213-1056
12283GERARDNicolas1:37:0145034993+490
13237POULAINAntoine1:40:3349004817-83
7004PHILIPPERenaud1:41:0045044796+292
12778FROELICHERVincent1:43:1049684695-273
19024DALIBARDNicolas1:44:3941614628+467
12158PEYRONLudovic1:46:51N/A4533N/A
15964GUIBERTLionel1:47:1045304520-10
10259HAURYAndre1:50:1251964395-801
21183VUILLEMARDJérémy1:53:53N/A4253N/A
20047SCOTTChristopher1:54:0945244243-281
366VESCOVOJ-Albert1:54:4347234222-501
16683NOEGELENFabian1:55:5434204179+759
9618PECHSTEINUlrich1:59:1543164062-254
13062STEINNicolas2:00:1439884029+41
22158GREIVELDINGERPierreN/AN/A0N/A
2476LEMERCIERNicolasN/AN/A0N/A
11875FRANCOISGeraldN/A45600-4560

  Indice de confiance du circuit (moyenne des différences entre CN et score sur la course des 3 à 10 premiers) : 446




 Circuit "C"

Licence Nom Prénom Temps CN
précédent
Score sur
la course
Différence
7260SUTTEROlivier0:54:0059135753-160
10561DUPOIRIEUXJules0:58:0064885356-1132
11440DUPOIRIEUXGilles1:00:1554605156-304
1884DUBOCMichel1:02:3754364961-475
2409POGUPhilippe1:04:1754994832-667
2100MORLONMarie1:05:3349474739-208
15847BACKSCHEIDEREmilie1:05:4055374731-806
2099MORLONJ-Francois1:06:3044064671+265
19017COURTOISYoann1:06:5440154643+628
2894LEBIHANMarcel1:07:5647294573-156
1481FATHJean-Marie1:08:0551794563-616
12771OBSTETARAnne1:08:2840804537+457
1910MEYERJ-Marc1:08:3148934534-359
15739BELLIOlivier1:10:1741794420+241
8639BILQUEZHugo1:12:3644234279-144
16751CHAPELOTLucas1:13:1639754240+265
5436FLAMBEAUMathilde1:13:2746404229-411
2459GLIKSONFrancois1:13:5636364202+566
5795MENGINHelene1:15:3832774107+830
10904RAVENELFanny1:15:5438584093+235
19028SCHMIDT-MORGENROTHJacques1:16:3540304056+26
3301BOISSONNETYolande1:16:39N/A4053N/A
7259SUTTERAriane1:17:0942374026-211
2378MAKOVICKAVeronique1:20:1242263873-353
14216VILLARIsabelle1:20:2238963865-31
10901RAVENELPhilippe1:21:4143463803-543
11723STAUFFERMarie1:21:4827523798+1046
2489JOLYCyril1:23:1333543733+379
8031BECKERPhilippe1:23:3730143715+701
10496DUPOIRIEUXSophie1:25:1938173641-176
2268BOTTEMERChristian1:27:1237863562-224
9363BARLETJ-Pierre1:30:2737413434-307
13637KORCHAKLena1:30:3840703427-643
2386SUTTERJean1:30:5230103419+409
17713KAUFFMANNBaptiste1:31:5342163381-835
12284GERARDLea1:32:4531543349+195
16130ANCELJulie1:34:1036763299-377
10260LEBIHANSarah1:34:3636463284-362
13061STEINVirginie1:36:0323683234+866
9077DALLA-COSTAChristia1:36:0334513234-217
2481DUCHENEEdith1:37:0530213200+179
20369JACQUETAlain1:40:03N/A3105N/A
13688FRANCOISAline1:42:3633123028-284
1450KENANENoura1:43:00N/A3016N/A
12282GERARDNathalie1:43:1134103011-399
15858CASASSASAntoine1:45:5932062931-275
3414HUROTFlorence1:46:1528252924+99
9619PECHSTEINAlice1:48:2318652866+1001
12767LOGESophie1:55:5031362682-454
5533THIEBAULTJ-Philippe1:58:0633792630-749
10902RAVENELVeronique2:00:3031762578-598
22013BOLZERVéronique2:01:26N/A2558N/A
12526STAUFFEREmmanuelle2:03:3432842514-770
20409SCHELCHERGinette2:13:30N/A2327N/A
20882FERLETBénédicte2:26:07N/A2126N/A
15296GREVETClaudie2:37:0521811978-203
5638TARDYVictorN/A51570-5157
15332MEYERPatriciaN/A34580-3458

  Indice de confiance du circuit (moyenne des différences entre CN et score sur la course des 3 à 10 premiers) : 141




 Circuit "D"

Licence Nom Prénom Temps CN
précédent
Score sur
la course
Différence
11092HUROTBenjamin0:35:2339035248+1345
3312CORDIERJacques0:39:4452484673-575
6753HUEBERNicole0:41:5548194430-389
15479MORELEugenie0:44:3632374163+926
12769LOGEPaul0:44:4338164152+336
9976POINSIGNONElise0:45:1941164097-19
2370CHARLOTPatrick0:47:1037843937+153
12768LOGELucie0:48:2334333838+405
17681MAIRECamille0:48:2935323830+298
1509AUBRYMaurice0:49:1736823768+86
10146ETIENNEDominique0:49:4839933728-265
9897MORELHelene0:49:5437723721-51
2376MAKOVICKALibor0:50:1045473701-846
320BAGUEREYGilles0:50:4740333656-377
2558VOGTClaude0:51:1642143622-592
19413HANAUERSébastien0:51:5228803580+700
7787MORLONEmilie0:51:5831403573+433
13478KORCHAKNicole0:52:5440623510-552
1178LEMERCIERBernard0:52:5540893509-580
2530LOCUSSERobert0:53:3537093465-244
2263LEMBLEAndre0:53:5637083443-265
17487VALDENAIREMathilde0:54:2728153410+595
19588FRIEDRICHNathan0:55:01N/A3375N/A
14573JACQUETMartin0:55:2325583353+795
1487MARCHESINSylvie0:56:1945193297-1222
6779MAKOVICKAElsa0:56:2134963295-201
8028GENEVEMarc0:56:4331423274+132
9364BARLETNancy0:57:0435073254-253
7658ZEHNTERRaymond0:58:3834843167-317
3320PIERSONJ-Luc0:59:0234273145-282
2483DUCHENESerge0:59:1431303135+5
1916RUHLMANNJ-Pierre1:00:1035573086-471
14223FISCHERGuy1:01:3435613016-545
2457CHEVRYArmand1:01:4836553004-651
2262LEMBLEAdeline1:01:5926912996+305
2368BENACEKVaclav1:02:1436332984-649
17715SAVARTTitouan1:03:0414562944+1488
2445RIFFARDJ-Claude1:03:3531832920-263
1909MEYERCorinne1:06:4033582785-573
9368BLAUDEZAlain1:07:2132992757-542
2532MONTANARIClaude1:07:5229132736-177
2555RIAULTBernard1:08:5536322694-938
2524DUVALJacques1:10:4925652622+57
13242SCHOULLERCoralie1:11:1331352607-528
18572BACKSCHEIDERJean Marie1:11:2820262598+572
2522DUMONTNorbert1:12:04N/A2576N/A
13143DENNYJonathan1:12:3215512560+1009
2536MOUCHETTEAlain1:12:5133882549-839
2552KNOBLOCHFrancis1:14:0625902506-84
15297BOEHMYves1:16:1424292436+7
9509BASTIENChantal1:19:4928212326-495
2410RAGAZZIMichel1:24:5025872189-398
7204CURTDaniel1:25:5522242161-63
2387SUTTEROdile1:28:0226602109-551
19245BARBELINDominique1:29:10N/A2082N/A
16129THIEBAUTEvelyne1:29:2525582077-481
18625BLASSNadine1:33:2017821989+207
4678PINEAUNoelle1:36:0819441931-13
17329BICHOTTEVincentN/A18260-1826

  Indice de confiance du circuit (moyenne des différences entre CN et score sur la course des 3 à 10 premiers) : 119




 Circuit "G"

Licence Nom Prénom Temps CN
précédent
Score sur
la course
Différence
20159COURTOISThomas0:14:0712972032+735
13639KORCHAKEmilie0:15:1021901892-298
12770LOGEJeanne0:16:4818431708-135
20850LORANGNathan0:17:02N/A1684N/A
14215VILLARZoe0:17:1019721671-301
22050MAIRECassandre0:17:35N/A1632N/A
20527GHIZZOEmile0:18:17N/A1569N/A
17074FRANCOISLysa0:32:321392882-510
18699VILLARAlix0:36:591350776-574

  Indice de confiance du circuit (moyenne des différences entre CN et score sur la course des 3 à 10 premiers) : 625




 Circuit "F"

Licence Nom Prénom Temps CN
précédent
Score sur
la course
Différence
20315MATHISMartin0:20:0719292308+379
20165LALLEMANDYann0:23:01N/A2017N/A
12776BOUSSERThomas0:23:3224951973-522
20408HANAUERFlorence0:24:2418531903+50
13477DIETSCHJoel0:25:0225381854-684
12524COLINHugo0:28:4823681612-756
20359BOLZERMarie0:30:42N/A1512N/A
20360FRESSEJean-cyprien0:31:30N/A1474N/A
14658PERRINNathan0:33:566871368+681
1458MAILLARDChantal0:37:0117011254-447
17495ANDRIAMORAZAFIHANTANirina0:40:3719231143-780
1508AUBRYEdith0:51:09N/A908N/A
20164LEMARQUISAdrien0:54:37N/A850N/A
21255COLINLucie0:56:15N/A825N/A
2534MONTANARIRachel0:57:491344803-541
2546DESAINTJANAlice1:10:432199656-1543

  Indice de confiance du circuit (moyenne des différences entre CN et score sur la course des 3 à 10 premiers) : 488




 Circuit "E"

Licence Nom Prénom Temps CN
précédent
Score sur
la course
Différence
14575AMETMarion0:30:4718244039+2215
2400BONNETChristine0:33:1441983741-457
1448KENANEAbdelkader0:33:5440643667-397
20232PIERRATEmeline0:34:5418333562+1729
7788MORLONLouise0:37:3225183312+794
2401DEVILLENelly0:37:4745613290-1271
11454LEMERCIERVictoire0:41:0627133025+312
13638KORCHAKNathalie0:42:0727512952+201
2539MOUCHETTERegine0:42:3035492925-624
2404HODSONMichael0:45:4332562719-537
2533MONTANARIColette0:46:3730632667-396
7574OUDINM-Reine0:47:1930922628-464
2474LEMERCIERJocelyne0:48:1726842575-109
15324ETIENNEBernadette0:48:4226172553-64
20170MAIRECandice0:48:5116182545+927
2557VOGTChristiane0:48:5636222541-1081
4671POGUPaulette0:50:3423452459+114
7182BERGERM-Jose0:51:2125682421-147
14656FRANCOISJosiane0:52:1220132382+369
1443BEGUINOTJacques0:53:2225752330-245
17494ANDRIAMORAZAFIHANTASophie0:54:1322202293+73
2547DESAINTJANClaude0:59:0027562107-649
2446RIFFARDM-Lucie1:00:5027352044-691
19221SEMBACHLauriane1:03:5718531944+91
8954BASTIEN-FATHNicole1:09:5426401779-861
2553KNOBLOCHMichele1:10:2318321766-66
368VESCOVOOdile1:19:1922131567-646
22099HEBERTClaude1:20:56N/A1536N/A
1444BEGUINOTM-Louise2:18:421678896-782

  Indice de confiance du circuit (moyenne des différences entre CN et score sur la course des 3 à 10 premiers) : 427




 Circuit "H"

Licence Nom Prénom Temps CN
précédent
Score sur
la course
Différence
18450MOUGEOTJacques0:39:36754987+233
15392BOISSONNETTom0:40:19N/A970N/A
16724BOISSONNETLea0:40:29N/A966N/A
19693PINEAULéa0:41:471183936-247
21061PINEAUJulie0:41:51N/A934N/A
21129BOISSONNETLilou0:45:06N/A867N/A
12525COLINAnais0:45:19N/A863N/A

  Indice de confiance du circuit (moyenne des différences entre CN et score sur la course des 3 à 10 premiers) : 396






 Retour